H1 CPF 2 NER 2024 5 1 9 122 01 glonass145 H2 2213001 9145 54031 2024 5 1 0 0 0 2024 5 4 23 45 0 900 1 1 0 0 0 1 H9 10 0 60431 0.00000 0 -16504751.627 14590855.131 12876408.354 10 0 60431 900.00000 0 -15515762.439 13148837.050 15408917.211 10 0 60431 1800.00000 0 -14503303.876 11376348.606 17642399.341 10 0 60431 2700.00000 0 -13524315.520 9300853.101 19533496.821 10 0 60431 3600.00000 0 -12630845.443 6961561.400 21045485.941 10 0 60431 4500.00000 0 -11867809.721 4408051.479 22148988.695 10 0 60431 5400.00000 0 -11271069.382 1698458.095 22822542.905 10 0 60431 6300.00000 0 -10865905.354 -1102693.444 23053020.177 10 0 60431 7200.00000 0 -10665955.420 -3926920.573 22835883.690 10 0 60431 8100.00000 0 -10672657.814 -6704383.974 22175280.735 10 0 60431 9000.00000 0 -10875225.004 -9366548.331 21083967.908 10 0 60431 9900.00000 0 -11251149.048 -11848793.698 19583069.916 10 0 60431 10800.00000 0 -11767217.642 -14092869.662 17701676.016 10 0 60431 11700.00000 0 -12380998.485 -16049090.777 15476281.173 10 0 60431 12600.00000 0 -13042729.764 -17678182.163 12950082.100 10 0 60431 13500.00000 0 -13697537.251 -18952698.609 10172141.210 10 0 60431 14400.00000 0 -14287884.443 -19857958.140 7196434.312 10 0 60431 15300.00000 0 -14756152.003 -20392451.236 4080800.402 10 0 60431 16200.00000 0 -15047236.982 -20567708.978 885814.120 10 0 60431 17100.00000 0 -15111061.174 -20407636.171 -2326396.859 10 0 60431 18000.00000 0 -14904881.601 -19947338.198 -5493365.779 10 0 60431 18900.00000 0 -14395304.388 -19231491.869 -8553507.764 10 0 60431 19800.00000 0 -13559915.832 -18312329.845 -11447323.215 10 0 60431 20700.00000 0 -12388460.729 -17247324.607 -14118559.441 10 0 60431 21600.00000 0 -10883517.261 -16096670.540 -16515307.372 10 0 60431 22500.00000 0 -9060639.144 -14920671.065 -18591011.688 10 0 60431 23400.00000 0 -6947958.248 -13777141.451 -20305374.629 10 0 60431 24300.00000 0 -4585263.669 -12718936.975 -21625136.122 10 0 60431 25200.00000 0 -2022595.120 -11791710.422 -22524715.532 10 0 60431 26100.00000 0 681591.183 -11031992.911 -22986703.106 10 0 60431 27000.00000 0 3462608.294 -10465678.165 -23002192.279 10 0 60431 27900.00000 0 6251985.641 -10106973.156 -22570946.994 10 0 60431 28800.00000 0 8980076.387 -9957858.376 -21701401.329 10 0 60431 29700.00000 0 11578717.437 -10008079.563 -20410491.815 10 0 60431 30600.00000 0 13983832.454 -10235670.453 -18723325.876 10 0 60431 31500.00000 0 16137870.537 -10607983.915 -16672692.840 10 0 60431 32400.00000 0 17991980.118 -11083187.556 -14298426.884 10 0 60431 33300.00000 0 19507828.523 -11612160.476 -11646634.018 10 0 60431 34200.00000 0 20658992.356 -12140710.977 -8768797.897 10 0 60431 35100.00000 0 21431861.627 -12612021.542 -5720781.571 10 0 60431 36000.00000 0 21826020.827 -12969217.795 -2561744.372 10 0 60431 36900.00000 0 21854091.898 -13157952.853 647005.071 10 0 60431 37800.00000 0 21541046.570 -13128897.738 3843197.421 10 0 60431 38700.00000 0 20923017.689 -12840032.442 6964809.698 10 0 60431 39600.00000 0 20045660.140 -12258640.531 9951267.276 10 0 60431 40500.00000 0 18962130.761 -11362922.615 12744617.420 10 0 60431 41400.00000 0 17730772.486 -10143159.988 15290651.666 10 0 60431 42300.00000 0 16412600.268 -8602378.589 17539955.318 10 0 60431 43200.00000 0 15068694.367 -6756484.309 19448863.991 10 0 60431 44100.00000 0 13757610.353 -4633862.714 20980308.969 10 0 60431 45000.00000 0 12532914.236 -2274458.569 22104535.336 10 0 60431 45900.00000 0 11440945.784 271627.881 22799679.330 10 0 60431 46800.00000 0 10518903.423 2945970.860 23052194.005 10 0 60431 47700.00000 0 9793330.666 5684000.504 22857115.046 10 0 60431 48600.00000 0 9279067.212 8417446.442 22218161.541 10 0 60431 49500.00000 0 8978708.521 11076943.195 21147669.450 10 0 60431 50400.00000 0 8882596.441 13594690.059 19666358.570 10 0 60431 51300.00000 0 8969341.261 15907055.721 17802936.886 10 0 60431 52200.00000 0 9206853.311 17957019.757 15593549.211 10 0 60431 53100.00000 0 9553840.688 19696349.656 13081080.134 10 0 60431 54000.00000 0 9961709.986 21087422.723 10314324.160 10 0 60431 54900.00000 0 10376789.664 22104616.838 7347038.726 10 0 60431 55800.00000 0 10742781.785 22735211.909 4236898.365 10 0 60431 56700.00000 0 11003337.915 22979764.364 1044370.437 10 0 60431 57600.00000 0 11104649.481 22851939.207 -2168465.328 10 0 60431 58500.00000 0 10997942.015 22377807.100 -5339129.838 10 0 60431 59400.00000 0 10641766.677 21594636.642 -8405965.854 10 0 60431 60300.00000 0 10003991.025 20549233.411 -11309342.862 10 0 60431 61200.00000 0 9063403.727 19295896.550 -13992821.349 10 0 60431 62100.00000 0 7810864.419 17894079.771 -16404253.269 10 0 60431 63000.00000 0 6249949.206 16405856.010 -18496796.956 10 0 60431 63900.00000 0 4397063.748 14893292.958 -20229826.607 10 0 60431 64800.00000 0 2281018.338 13415850.181 -21569718.889 10 0 60431 65700.00000 0 -57917.949 12027907.150 -22490501.781 10 0 60431 66600.00000 0 -2569445.208 10776525.724 -22974353.642 10 0 60431 67500.00000 0 -5195083.799 9699540.329 -23011943.461 10 0 60431 68400.00000 0 -7870372.155 8824055.094 -22602606.355 10 0 60431 69300.00000 0 -10527320.484 8165409.937 -21754351.438 10 0 60431 70200.00000 0 -13097019.059 7726657.844 -20483702.307 10 0 60431 71100.00000 0 -15512293.408 7498574.132 -18815373.448 10 0 60431 72000.00000 0 -17710296.762 7460196.277 -16781788.844 10 0 60431 72900.00000 0 -19634932.697 7579870.666 -14422452.021 10 0 60431 73800.00000 0 -21239007.906 7816761.473 -11783179.475 10 0 60431 74700.00000 0 -22486026.107 8122757.506 -8915212.142 10 0 60431 75600.00000 0 -23351548.978 8444696.146 -5874221.884 10 0 60431 76500.00000 0 -23824067.989 8726810.203 -2719232.088 10 0 60431 77400.00000 0 -23905351.314 8913294.020 488526.687 10 0 60431 78300.00000 0 -23610251.990 8950880.167 3686803.842 10 0 60431 79200.00000 0 -22965985.928 8791317.530 6813535.490 10 0 60431 80100.00000 0 -22010910.631 8393645.718 9808047.319 10 0 60431 81000.00000 0 -20792856.285 7726169.287 12612230.127 10 0 60431 81900.00000 0 -19367079.577 6768047.860 15171665.273 10 0 60431 82800.00000 0 -17793926.253 5510434.363 17436678.264 10 0 60431 83700.00000 0 -16136300.458 3957112.495 19363300.319 10 0 60431 84600.00000 0 -14457046.750 2124605.490 20914119.567 10 0 60431 85500.00000 0 -12816354.166 41750.255 22059005.767 10 0 60432 0.00000 0 -11269290.723 -2251246.556 22775694.789 10 0 60432 900.00000 0 -9863570.210 -4704233.985 23050222.165 10 0 60432 1800.00000 0 -8637646.211 -7258962.715 22877196.532 10 0 60432 2700.00000 0 -7619209.838 -9851280.241 22259908.917 10 0 60432 3600.00000 0 -6824155.657 -12413582.255 21210274.384 10 0 60432 4500.00000 0 -6256057.886 -14877420.551 19748607.178 10 0 60432 5400.00000 0 -5906178.638 -17176159.644 17903232.980 10 0 60432 6300.00000 0 -5754007.584 -19247572.092 15709945.052 10 0 60432 7200.00000 0 -5768310.122 -21036264.668 13211314.120 10 0 60432 8100.00000 0 -5908639.646 -22495834.255 10455864.745 10 0 60432 9000.00000 0 -6127249.803 -23590663.314 7497133.728 10 0 60432 9900.00000 0 -6371325.538 -24297279.607 4392628.676 10 0 60432 10800.00000 0 -6585437.984 -24605223.034 1202707.071 10 0 60432 11700.00000 0 -6714118.563 -24517383.138 -2010602.006 10 0 60432 12600.00000 0 -6704442.363 -24049793.164 -5184809.911 10 0 60432 13500.00000 0 -6508510.366 -23230889.595 -8258189.893 10 0 60432 14400.00000 0 -6085724.330 -22100268.757 -11170983.422 10 0 60432 15300.00000 0 -5404756.940 -20706993.407 -13866567.063 10 0 60432 16200.00000 0 -4445132.870 -19107521.210 -16292556.646 10 0 60432 17100.00000 0 -3198352.995 -17363342.867 -18401826.872 10 0 60432 18000.00000 0 -1668513.444 -15538429.708 -20153426.399 10 0 60432 18900.00000 0 127607.400 -13696598.239 -21513370.819 10 0 60432 19800.00000 0 2160998.391 -11898902.259 -22455298.540 10 0 60432 20700.00000 0 4391383.526 -10201161.634 -22960977.398 10 0 60432 21600.00000 0 6768668.465 -8651730.634 -23020652.854 10 0 60432 22500.00000 0 9234806.037 -7289598.380 -22633231.654 10 0 60432 23400.00000 0 11726003.616 -6142899.819 -21806297.941 10 0 60432 24300.00000 0 14175181.156 -5227898.270 -20555961.942 10 0 60432 25200.00000 0 16514578.269 -4548480.783 -18906544.313 10 0 60432 26100.00000 0 18678402.483 -4096186.148 -16890102.353 10 0 60432 27000.00000 0 20605409.096 -3850763.079 -14545807.119 10 0 60432 27900.00000 0 22241305.758 -3781234.000 -11919183.289 10 0 60432 28800.00000 0 23540882.073 -3847418.698 -9061226.291 10 0 60432 29700.00000 0 24469775.858 -4001852.898 -6027413.576 10 0 60432 30600.00000 0 25005802.761 -4192020.158 -2876629.018 10 0 60432 31500.00000 0 25139794.030 -4362802.392 329978.711 10 0 60432 32400.00000 0 24875907.797 -4459045.057 3530181.638 10 0 60432 33300.00000 0 24231401.201 -4428128.224 6661878.815 10 0 60432 34200.00000 0 23235873.224 -4222434.476 9664299.890 10 0 60432 35100.00000 0 21930010.253 -3801608.944 12479182.530 10 0 60432 36000.00000 0 20363887.109 -3134515.534 15051900.867 10 0 60432 36900.00000 0 18594894.813 -2200806.167 17332523.130 10 0 60432 37800.00000 0 16685381.798 -992036.125 19276778.199 10 0 60432 38700.00000 0 14700107.045 487722.451 20846912.658 10 0 60432 39600.00000 0 12703611.327 2221795.856 22012422.086 10 0 60432 40500.00000 0 10757615.916 4181357.851 22750642.768 10 0 60432 41400.00000 0 8918556.806 6326395.174 23047192.691 10 0 60432 42300.00000 0 7235356.804 8607150.743 22896253.375 10 0 60432 43200.00000 0 5747527.808 10965985.912 22300687.065 10 0 60432 44100.00000 0 4483681.905 13339585.592 21271986.745 10 0 60432 45000.00000 0 3460512.907 15661415.616 19830059.460 10 0 60432 45900.00000 0 2682290.393 17864330.920 18002846.524 10 0 60432 46800.00000 0 2140886.919 19883226.574 15825787.219 10 0 60432 47700.00000 0 1816336.824 21657621.366 13341135.678 10 0 60432 48600.00000 0 1677902.610 23134066.196 10597143.550 10 0 60432 49500.00000 0 1685603.525 24268276.380 7647123.850 10 0 60432 50400.00000 0 1792141.207 25026898.259 4548414.003 10 0 60432 51300.00000 0 1945140.385 25388835.663 1361258.324 10 0 60432 52200.00000 0 2089608.988 25346080.184 -1852367.996 10 0 60432 53100.00000 0 2170512.580 24904010.106 -5029969.861 10 0 60432 54000.00000 0 2135353.059 24081145.345 -8109753.895 10 0 60432 54900.00000 0 1936641.278 22908368.806 -11031836.128 10 0 60432 55800.00000 0 1534157.824 21427647.191 -13739411.440 10 0 60432 56700.00000 0 896905.247 19690305.459 -16179861.400 10 0 60432 57600.00000 0 4668.246 17754927.894 -18305778.587 10 0 60432 58500.00000 0 -1150884.896 15684974.366 -20075887.289 10 0 60432 59400.00000 0 -2565606.856 13546212.030 -21455842.903 10 0 60432 60300.00000 0 -4222807.561 11404070.162 -22418894.865 10 0 60432 61200.00000 0 -6093725.568 9321028.646 -22946400.834 10 0 60432 62100.00000 0 -8138515.454 7354148.806 -23028182.794 10 0 60432 63000.00000 0 -10307710.559 5552848.949 -22662718.855 10 0 60432 63900.00000 0 -12544100.649 3957016.463 -21857167.579 10 0 60432 64800.00000 0 -14784946.766 2595534.024 -20627224.807 10 0 60432 65700.00000 0 -16964441.624 1485280.048 -18996815.962 10 0 60432 66600.00000 0 -19016313.517 630643.686 -16997629.872 10 0 60432 67500.00000 0 -20876465.813 23573.178 -14668503.019 10 0 60432 68400.00000 0 -22485542.414 -355845.889 -12054665.908 10 0 60432 69300.00000 0 -23791312.540 -538307.953 -9206865.939 10 0 60432 70200.00000 0 -24750775.572 -563747.134 -6180383.532 10 0 60432 71100.00000 0 -25331898.221 -479404.959 -3033960.396 10 0 60432 72000.00000 0 -25514911.537 -337588.428 171339.329 10 0 60432 72900.00000 0 -25293113.629 -193213.658 3373312.934 10 0 60432 73800.00000 0 -24673144.560 -101239.394 6509824.998 10 0 60432 74700.00000 0 -23674721.995 -114099.275 9520011.671 10 0 60432 75600.00000 0 -22329848.709 -279241.764 12345459.954 10 0 60432 76500.00000 0 -20681525.139 -636882.111 14931339.090 10 0 60432 77400.00000 0 -18782020.766 -1218061.709 17227462.193 10 0 60432 78300.00000 0 -16690776.461 -2043097.317 19189257.738 10 0 60432 79200.00000 0 -14472025.133 -3120486.227 20778632.398 10 0 60432 80100.00000 0 -12192229.620 -4446314.381 21964708.865 10 0 60432 81000.00000 0 -9917444.172 -6004193.458 22724424.726 10 0 60432 81900.00000 0 -7710708.866 -7765730.894 23042981.097 10 0 60432 82800.00000 0 -5629584.854 -9691514.637 22914132.472 10 0 60432 83700.00000 0 -3723932.399 -11732572.951 22340312.138 10 0 60432 84600.00000 0 -2034023.543 -13832249.773 21332590.484 10 0 60432 85500.00000 0 -589067.435 -15928418.643 19910466.527 10 0 60433 0.00000 0 593790.724 -17955943.695 18101496.256 10 0 60433 900.00000 0 1509956.488 -19849286.858 15940763.219 10 0 60433 1800.00000 0 2167337.436 -21545150.070 13470203.382 10 0 60433 2700.00000 0 2585763.663 -22985045.801 10737793.500 10 0 60433 3600.00000 0 2795900.874 -24117685.361 7796620.594 10 0 60433 4500.00000 0 2837703.253 -24901085.588 4703849.519 10 0 60433 5400.00000 0 2758472.058 -25304304.795 1519608.900 10 0 60433 6300.00000 0 2610602.889 -25308734.445 -1694182.571 10 0 60433 7200.00000 0 2449117.903 -24908891.714 -4875026.020 10 0 60433 8100.00000 0 2329088.539 -24112679.154 -7961064.131 10 0 60433 9000.00000 0 2303058.978 -22941100.294 -10892290.197 10 0 60433 9900.00000 0 2418580.544 -21427443.084 -13611720.081 10 0 60433 10800.00000 0 2715962.420 -19615965.598 -16066503.699 10 0 60433 11700.00000 0 3226334.717 -17560139.437 -18208953.975 10 0 60433 12600.00000 0 3970106.539 -15320524.792 -19997473.104 10 0 60433 13500.00000 0 4955884.747 -12962366.434 -21397358.290 10 0 60433 14400.00000 0 6179899.597 -10553011.261 -22381471.673 10 0 60433 15300.00000 0 7625961.899 -8159255.238 -22930762.035 10 0 60433 16200.00000 0 9265954.014 -5844730.065 -23034628.798 10 0 60433 17100.00000 0 11060834.643 -3667437.856 -22691121.963 10 0 60433 18000.00000 0 12962115.842 -1677535.671 -21906974.647 10 0 60433 18900.00000 0 14913751.053 84538.972 -20697468.067 10 0 60433 19800.00000 0 16854355.847 1589524.883 -19086131.795 10 0 60433 20700.00000 0 18719669.097 2820316.981 -17104285.168 10 0 60433 21600.00000 0 20445152.322 3772429.734 -14790428.644 10 0 60433 22500.00000 0 21968619.018 4453926.432 -12189496.650 10 0 60433 23400.00000 0 23232784.380 4884818.702 -9351986.202 10 0 60433 24300.00000 0 24187629.031 5095962.822 -6332977.903 10 0 60433 25200.00000 0 24792477.964 5127500.403 -3191068.135 10 0 60433 26100.00000 0 25017707.640 5026910.084 12766.921 10 0 60433 27000.00000 0 24846009.706 4846753.220 3216353.395 10 0 60433 27900.00000 0 24273158.227 4642209.351 6357524.982 10 0 60433 28800.00000 0 23308248.142 4468506.073 9375327.818 10 0 60433 29700.00000 0 21973394.722 4378352.298 12211201.504 10 0 60433 30600.00000 0 20302906.352 4419483.703 14810113.391 10 0 60433 31500.00000 0 18341964.946 4632424.367 17121624.144 10 0 60433 32400.00000 0 16144868.789 5048559.451 19100864.149 10 0 60433 33300.00000 0 13772910.664 5688600.671 20709402.129 10 0 60433 34200.00000 0 11291979.281 6561509.837 21915989.486 10 0 60433 35100.00000 0 8769983.290 7663926.561 22697166.318 10 0 60433 36000.00000 0 6274204.386 8980125.213 23037717.672 10 0 60433 36900.00000 0 3868688.915 10482504.127 22930971.372 10 0 60433 37800.00000 0 1611785.664 12132587.864 22378931.624 10 0 60433 38700.00000 0 -446068.532 13882501.976 21392245.585 10 0 60433 39600.00000 0 -2264223.938 15676859.808 19990003.092 10 0 60433 40500.00000 0 -3813276.425 17454983.585 18199372.802 10 0 60433 41400.00000 0 -5076049.199 19153367.738 16055081.069 10 0 60433 42300.00000 0 -6048057.346 20708281.933 13598742.904 10 0 60433 43200.00000 0 -6737436.428 22058404.984 10878057.346 10 0 60433 44100.00000 0 -7164338.813 23147379.142 7945882.364 10 0 60433 45000.00000 0 -7359823.866 23926177.112 4859207.016 10 0 60433 45900.00000 0 -7364289.591 24355181.739 1678040.920 10 0 60433 46800.00000 0 -7225512.832 24405890.182 -1535757.072 10 0 60433 47700.00000 0 -6996381.876 24062170.046 -4719687.576 10 0 60433 48600.00000 0 -6732418.446 23321013.934 -7811832.474 10 0 60433 49500.00000 0 -6489195.091 22192760.031 -10752065.227 10 0 60433 50400.00000 0 -6319758.362 20700769.088 -13483225.310 10 0 60433 51300.00000 0 -6272167.859 18880571.116 -15952233.261 10 0 60433 52200.00000 0 -6387256.100 16778517.599 -18111124.279 10 0 60433 53100.00000 0 -6696704.605 14449995.749 -19917980.041 10 0 60433 54000.00000 0 -7221517.988 11957279.690 -21337740.785 10 0 60433 54900.00000 0 -7970960.797 9367108.360 -22342882.267 10 0 60433 55800.00000 0 -8942002.209 6748091.174 -22913944.980 10 0 60433 56700.00000 0 -10119292.180 4168049.260 -23039906.053 10 0 60433 57600.00000 0 -11475670.346 1691402.436 -22718387.288 10 0 60433 58500.00000 0 -12973186.597 -623290.132 -21955695.895 10 0 60433 59400.00000 0 -14564590.909 -2725534.324 -20766697.597 10 0 60433 60300.00000 0 -16195230.447 -4574760.075 -19174524.826 10 0 60433 61200.00000 0 -17805274.902 -6141758.981 -17210125.744 10 0 60433 62100.00000 0 -19332177.325 -7409642.130 -14911662.737 10 0 60433 63000.00000 0 -20713267.829 -8374279.738 -12323771.820 10 0 60433 63900.00000 0 -21888371.765 -9044205.713 -9496697.056 10 0 60433 64800.00000 0 -22802342.878 -9439992.591 -6485316.516 10 0 60433 65700.00000 0 -23407405.324 -9593124.411 -3348078.444 10 0 60433 66600.00000 0 -23665206.218 -9544416.016 -145868.203 10 0 60433 67500.00000 0 -23548492.474 -9342046.352 3059172.044 10 0 60433 68400.00000 0 -23042341.276 -9039289.424 6204847.966 10 0 60433 69300.00000 0 -22144892.211 -8692039.304 9230118.479 10 0 60433 70200.00000 0 -20867549.953 -8356234.127 12076278.495 10 0 60433 71100.00000 0 -19234648.493 -8085288.174 14688096.015 10 0 60433 72000.00000 0 -17282590.433 -7927640.751 17014881.586 10 0 60433 72900.00000 0 -15058496.737 -7924525.493 19011469.546 10 0 60433 73800.00000 0 -12618422.587 -8108054.422 20639092.372 10 0 60433 74700.00000 0 -10025213.073 -8499697.830 21866131.497 10 0 60433 75600.00000 0 -7346087.149 -9109224.435 22668730.449 10 0 60433 76500.00000 0 -4650049.562 -9934147.032 23031258.732 10 0 60433 77400.00000 0 -2005237.444 -10959697.770 22946617.647 10 0 60433 78300.00000 0 523689.051 -12159335.069 22416382.118 10 0 60433 79200.00000 0 2878004.513 -13495762.077 21450775.564 10 0 60433 80100.00000 0 5007123.052 -14922415.040 20068477.837 10 0 60433 81000.00000 0 6870459.119 -16385360.320 18296269.361 10 0 60433 81900.00000 0 8438867.544 -17825521.392 16168517.600 10 0 60433 82800.00000 0 9695603.314 -19181143.065 13726515.092 10 0 60433 83700.00000 0 10636761.611 -20390389.824 11017681.203 10 0 60433 84600.00000 0 11271180.325 -21393969.158 8094642.593 10 0 60433 85500.00000 0 11619809.811 -22137669.223 5014210.016 10 0 60434 0.00000 0 11714577.207 -22574703.441 1836271.655 10 0 60434 900.00000 0 11596794.065 -22667762.684 -1377376.898 10 0 60434 1800.00000 0 11315175.418 -22390687.148 -4564238.382 10 0 60434 2700.00000 0 10923555.207 -21729687.326 -7662336.779 10 0 60434 3600.00000 0 10478395.598 -20684061.147 -10611428.569 10 0 60434 4500.00000 0 10036196.745 -19266376.639 -13354179.566 10 0 60434 5400.00000 0 9650917.522 -17502111.866 -15837283.530 10 0 60434 6300.00000 0 9371517.150 -15428766.848 -18012500.326 10 0 60434 7200.00000 0 9239722.277 -13094484.516 -19837593.258 10 0 60434 8100.00000 0 9288114.236 -10556238.292 -21277147.450 10 0 60434 9000.00000 0 9538617.424 -7877661.887 -22303253.784 10 0 60434 9900.00000 0 10001452.610 -5126611.741 -22896045.603 10 0 60434 10800.00000 0 10674599.196 -2372563.294 -23044078.500 10 0 60434 11700.00000 0 11543789.031 316051.035 -22744546.463 10 0 60434 12600.00000 0 12583031.995 2874452.169 -22003330.813 10 0 60434 13500.00000 0 13755651.325 5243965.458 -20834881.455 10 0 60434 14400.00000 0 15015785.381 7374211.751 -19261933.020 10 0 60434 15300.00000 0 16310293.006 9224948.626 -17315061.481 10 0 60434 16200.00000 0 17580982.814 10767486.531 -15032089.790 10 0 60434 17100.00000 0 18767073.129 11985622.298 -12457353.795 10 0 60434 18000.00000 0 19807779.531 12876052.502 -9640842.466 10 0 60434 18900.00000 0 20644921.534 13448250.821 -6637228.821 10 0 60434 19800.00000 0 21225438.935 13723815.882 -3504810.112 10 0 60434 20700.00000 0 21503712.044 13735318.168 -304377.773 10 0 60434 21600.00000 0 21443588.038 13524695.528 2901961.012 10 0 60434 22500.00000 0 21020027.985 13141265.714 6051987.200 10 0 60434 23400.00000 0 20220304.841 12639440.403 9084575.747 10 0 60434 24300.00000 0 19044701.579 12076237.637 11940879.969 10 0 60434 25200.00000 0 17506679.474 11508697.954 14565471.404 10 0 60434 26100.00000 0 15632508.737 10991313.456 16907413.105 10 0 60434 27000.00000 0 13460376.140 10573578.344 18921245.712 10 0 60434 27900.00000 0 11039005.983 10297764.240 20567867.515 10 0 60434 28800.00000 0 8425851.003 10197014.100 21815291.734 10 0 60434 29700.00000 0 5684927.554 10293835.079 22639266.760 10 0 60434 30600.00000 0 2884384.096 10599054.015 23023747.631 10 0 60434 31500.00000 0 93903.032 11111279.849 22961209.799 10 0 60434 32400.00000 0 -2617957.208 11816896.168 22452799.140 10 0 60434 33300.00000 0 -5186370.413 12690584.906 21508315.063 10 0 60434 34200.00000 0 -7552693.658 13696360.063 20146026.651 10 0 60434 35100.00000 0 -9666660.103 14789068.907 18392324.788 10 0 60434 36000.00000 0 -11488222.932 15916298.386 16281216.251 10 0 60434 36900.00000 0 -12988974.148 17020607.267 13853668.868 10 0 60434 37800.00000 0 -14153079.532 18041990.535 11156819.747 10 0 60434 38700.00000 0 -14977691.186 18920472.403 8243061.384 10 0 60434 39600.00000 0 -15472820.923 19598718.509 5169023.182 10 0 60434 40500.00000 0 -15660680.464 20024556.624 1994468.160 10 0 60434 41400.00000 0 -15574516.987 20153298.809 -1218873.417 10 0 60434 42300.00000 0 -15256993.973 19949766.053 -4408510.175 10 0 60434 43200.00000 0 -14758186.689 19389928.955 -7512411.346 10 0 60434 44100.00000 0 -14133278.011 18462094.186 -10470219.442 10 0 60434 45000.00000 0 -13440053.037 17167585.801 -13224429.445 10 0 60434 45900.00000 0 -12736299.367 15520891.865 -15721510.885 10 0 60434 46800.00000 0 -12077223.743 13549269.600 -17912950.543 10 0 60434 47700.00000 0 -11512994.799 11291825.090 -19756195.239 10 0 60434 48600.00000 0 -11086516.033 8798105.732 -21215476.518 10 0 60434 49500.00000 0 -10831523.039 6126263.921 -22262501.552 10 0 60434 50400.00000 0 -10771085.121 3340868.340 -22876997.341 10 0 60434 51300.00000 0 -10916574.094 510453.647 -23047098.384 10 0 60434 52200.00000 0 -11267143.286 -2295089.992 -22769570.920 10 0 60434 53100.00000 0 -11809738.297 -5007179.602 -22049870.070 10 0 60434 54000.00000 0 -12519638.672 -7561144.567 -20902029.211 10 0 60434 54900.00000 0 -13361507.515 -9898667.015 -19348384.060 10 0 60434 55800.00000 0 -14290904.786 -11969957.119 -17419136.922 10 0 60434 56700.00000 0 -15256200.659 -13735574.093 -15151769.473 10 0 60434 57600.00000 0 -16200808.601 -15167818.396 -12590315.268 10 0 60434 58500.00000 0 -17065644.313 -16251638.387 -9784505.819 10 0 60434 59400.00000 0 -17791707.221 -16985014.903 -6788806.555 10 0 60434 60300.00000 0 -18322675.870 -17378808.939 -3661361.076 10 0 60434 61200.00000 0 -18607407.885 -17456079.963 -462864.145 10 0 60434 62100.00000 0 -18602239.043 -17250904.551 2744614.830 10 0 60434 63000.00000 0 -18272984.325 -16806745.901 5898834.915 10 0 60434 63900.00000 0 -17596556.252 -16174443.580 8938589.914 10 0 60434 64800.00000 0 -16562131.821 -15409908.740 11804894.312 10 0 60434 65700.00000 0 -15171818.251 -14571622.282 14442125.839 10 0 60434 66600.00000 0 -13440788.746 -13718041.605 16799102.521 10 0 60434 67500.00000 0 -11396881.578 -12905025.271 18830073.531 10 0 60434 68400.00000 0 -9079678.186 -12183383.971 20495604.882 10 0 60434 69300.00000 0 -6539097.626 -11596660.759 21763343.151 10 0 60434 70200.00000 0 -3833564.780 -11179233.830 22608642.782 10 0 60434 71100.00000 0 -1027827.288 -10954821.481 23015045.167 10 0 60434 72000.00000 0 1809489.168 -10935452.159 22974600.372 10 0 60434 72900.00000 0 4608486.886 -11120942.986 22488025.345 10 0 60434 73800.00000 0 7300656.303 -11498908.996 21564695.308 10 0 60434 74700.00000 0 9821480.749 -12045303.156 20222468.106 10 0 60434 75600.00000 0 12112878.378 -12725464.980 18487344.318 10 0 60434 76500.00000 0 14125380.368 -13495634.238 16392968.974 10 0 60434 77400.00000 0 15819955.165 -14304866.520 13979983.802 10 0 60434 78300.00000 0 17169403.112 -15097270.330 11295241.891 10 0 60434 79200.00000 0 18159263.530 -15814471.528 8390899.446 10 0 60434 80100.00000 0 18788196.661 -16398200.993 5323402.023 10 0 60434 81000.00000 0 19067824.894 -16792895.789 2152384.943 10 0 60434 81900.00000 0 19022040.504 -16948203.283 -1060490.491 10 0 60434 82800.00000 0 18685809.765 -16821281.447 -4252741.723 10 0 60434 83700.00000 0 18103524.669 -16378797.096 -7362286.474 10 0 60434 84600.00000 0 17326972.717 -15598536.545 -10328656.469 10 0 60434 85500.00000 0 16413011.481 -14470559.589 -13094178.887 99